TimeCDT,TemperatureF,Dew PointF,Humidity,Sea Level PressureIn,VisibilityMPH,Wind Direction,Wind SpeedMPH,Gust SpeedMPH,PrecipitationIn,Events,Conditions,WindDirDegrees,DateUTC
12:15 AM,53.2,47.1,80,30.13,10.0,Calm,Calm,-,N/A,,Clear,0,2013-06-20 05:15:00
12:35 AM,52.2,48.2,86,30.13,10.0,Calm,Calm,-,N/A,,Clear,0,2013-06-20 05:35:00
12:55 AM,51.8,47.7,86,30.13,10.0,Calm,Calm,-,N/A,,Clear,0,2013-06-20 05:55:00
1:15 AM,51.4,47.1,85,30.13,10.0,Calm,Calm,-,N/A,,Clear,0,2013-06-20 06:15:00
1:35 AM,51.6,46.9,84,30.14,10.0,Calm,Calm,-,N/A,,Clear,0,2013-06-20 06:35:00
1:55 AM,50.5,47.7,90,30.14,10.0,Calm,Calm,-,N/A,,Clear,0,2013-06-20 06:55:00
2:15 AM,50.7,48.2,91,30.14,10.0,Calm,Calm,-,N/A,,Clear,0,2013-06-20 07:15:00
2:35 AM,50.5,48.0,91,30.14,10.0,Calm,Calm,-,N/A,,Clear,0,2013-06-20 07:35:00
2:55 AM,50.2,47.8,92,30.14,10.0,Calm,Calm,-,N/A,,Clear,0,2013-06-20 07:55:00
3:15 AM,49.1,46.8,92,30.14,10.0,Calm,Calm,-,N/A,,Clear,0,2013-06-20 08:15:00
3:35 AM,49.3,47.3,93,30.14,10.0,Calm,Calm,-,N/A,,Clear,0,2013-06-20 08:35:00
3:55 AM,48.7,46.8,93,30.14,10.0,Calm,Calm,-,N/A,,Clear,0,2013-06-20 08:55:00
4:15 AM,48.9,47.3,94,30.14,10.0,Calm,Calm,-,N/A,,Clear,0,2013-06-20 09:15:00
4:35 AM,48.7,46.9,93,30.14,10.0,Calm,Calm,-,N/A,,Clear,0,2013-06-20 09:35:00
4:55 AM,48.4,46.9,95,30.14,10.0,Calm,Calm,-,N/A,,Clear,0,2013-06-20 09:55:00
5:15 AM,48.4,47.3,96,30.15,10.0,Calm,Calm,-,N/A,,Scattered Clouds,0,2013-06-20 10:15:00
5:35 AM,48.4,47.5,97,30.15,10.0,Calm,Calm,-,N/A,,Scattered Clouds,0,2013-06-20 10:35:00
5:55 AM,49.3,47.7,94,30.15,10.0,Calm,Calm,-,N/A,,Clear,0,2013-06-20 10:55:00
6:15 AM,51.3,48.6,90,30.15,10.0,Calm,Calm,-,N/A,,Scattered Clouds,0,2013-06-20 11:15:00
6:35 AM,52.0,49.1,90,30.15,10.0,Calm,Calm,-,N/A,,Clear,0,2013-06-20 11:35:00
6:55 AM,54.3,49.5,84,30.15,10.0,Calm,Calm,-,N/A,,Clear,0,2013-06-20 11:55:00
7:15 AM,57.9,48.4,71,30.15,10.0,Calm,Calm,-,N/A,,Mostly Cloudy,0,2013-06-20 12:15:00
7:35 AM,57.6,49.3,74,30.16,10.0,Calm,Calm,-,N/A,,Scattered Clouds,0,2013-06-20 12:35:00
7:55 AM,60.3,50.4,70,30.16,10.0,Calm,Calm,-,N/A,,Clear,0,2013-06-20 12:55:00
8:15 AM,63.3,52.3,67,30.15,10.0,Calm,Calm,-,N/A,,Clear,0,2013-06-20 13:15:00
8:35 AM,66.2,53.6,64,30.16,10.0,Calm,Calm,-,N/A,,Clear,0,2013-06-20 13:35:00
8:55 AM,69.6,55.8,61,30.15,10.0,Calm,Calm,-,N/A,,Clear,0,2013-06-20 13:55:00
9:15 AM,72.5,57.0,58,30.16,10.0,SSE,4.6,-,N/A,,Clear,150,2013-06-20 14:15:00
9:35 AM,73.8,57.2,56,30.16,10.0,South,5.8,-,N/A,,Clear,170,2013-06-20 14:35:00
9:55 AM,75.6,58.8,56,30.16,10.0,South,4.6,-,N/A,,Clear,190,2013-06-20 14:55:00
10:15 AM,76.6,58.8,54,30.15,10.0,SSE,8.1,-,N/A,,Clear,160,2013-06-20 15:15:00
10:35 AM,77.7,59.4,53,30.15,10.0,South,6.9,-,N/A,,Clear,190,2013-06-20 15:35:00
10:55 AM,78.3,59.2,52,30.16,10.0,SSE,8.1,-,N/A,,Clear,150,2013-06-20 15:55:00
11:15 AM,79.2,59.0,50,30.16,10.0,South,6.9,-,N/A,,Clear,190,2013-06-20 16:15:00
11:35 AM,79.9,57.4,46,30.15,10.0,SSE,6.9,-,N/A,,Clear,150,2013-06-20 16:35:00
11:55 AM,80.1,57.2,45,30.15,10.0,SE,5.8,-,N/A,,Clear,130,2013-06-20 16:55:00
12:15 PM,81.0,55.2,41,30.16,10.0,East,4.6,-,N/A,,Clear,90,2013-06-20 17:15:00
12:35 PM,81.0,55.6,42,30.15,10.0,South,5.8,-,N/A,,Scattered Clouds,180,2013-06-20 17:35:00
12:55 PM,81.9,55.0,40,30.14,10.0,South,3.5,-,N/A,,Scattered Clouds,190,2013-06-20 17:55:00
1:15 PM,82.6,55.2,39,30.14,10.0,South,3.5,-,N/A,,Clear,170,2013-06-20 18:15:00
1:35 PM,82.9,53.1,36,30.13,10.0,SW,3.5,-,N/A,,Scattered Clouds,220,2013-06-20 18:35:00
1:55 PM,81.9,54.7,39,30.13,10.0,SSE,6.9,-,N/A,,Scattered Clouds,150,2013-06-20 18:55:00
2:15 PM,82.2,53.1,36,30.12,10.0,South,4.6,-,N/A,,Scattered Clouds,190,2013-06-20 19:15:00
2:35 PM,83.7,53.8,36,30.12,10.0,South,4.6,-,N/A,,Clear,180,2013-06-20 19:35:00
2:55 PM,84.4,54.1,35,30.12,10.0,South,6.9,-,N/A,,Clear,180,2013-06-20 19:55:00
3:15 PM,83.5,56.8,40,30.11,10.0,SE,6.9,16.1,N/A,,Clear,130,2013-06-20 20:15:00
3:35 PM,83.3,58.5,43,30.11,10.0,SSE,10.4,17.3,N/A,,Scattered Clouds,150,2013-06-20 20:35:00
3:55 PM,82.0,59.7,47,30.11,10.0,ESE,9.2,-,N/A,,Scattered Clouds,120,2013-06-20 20:55:00
4:15 PM,82.4,60.1,47,30.11,10.0,ESE,10.4,16.1,N/A,,Clear,120,2013-06-20 21:15:00
4:35 PM,81.3,59.9,48,30.11,10.0,ESE,12.7,-,N/A,,Clear,110,2013-06-20 21:35:00
4:55 PM,81.3,59.9,48,30.11,10.0,SE,12.7,-,N/A,,Clear,130,2013-06-20 21:55:00
5:15 PM,80.6,60.1,49,30.10,10.0,SE,10.4,16.1,N/A,,Clear,130,2013-06-20 22:15:00
5:35 PM,80.1,59.4,49,30.09,10.0,SE,12.7,17.3,N/A,,Clear,140,2013-06-20 22:35:00
5:55 PM,79.9,59.5,50,30.09,10.0,SE,13.8,-,N/A,,Clear,140,2013-06-20 22:55:00
6:15 PM,78.8,59.0,51,30.08,10.0,ESE,13.8,18.4,N/A,,Clear,120,2013-06-20 23:15:00
6:35 PM,78.1,58.3,50,30.08,10.0,SSE,9.2,18.4,N/A,,Clear,150,2013-06-20 23:35:00
6:55 PM,77.4,57.9,51,30.08,10.0,SE,12.7,-,N/A,,Clear,130,2013-06-20 23:55:00
7:15 PM,77.0,58.5,53,30.08,10.0,ESE,8.1,-,N/A,,Clear,110,2013-06-21 00:15:00
7:35 PM,75.7,57.9,54,30.09,10.0,SE,6.9,-,N/A,,Clear,130,2013-06-21 00:35:00
7:55 PM,74.3,57.7,56,30.09,10.0,ESE,6.9,-,N/A,,Clear,120,2013-06-21 00:55:00
8:15 PM,73.4,57.6,58,30.09,10.0,ESE,6.9,-,N/A,,Clear,110,2013-06-21 01:15:00
8:35 PM,72.0,57.2,60,30.09,10.0,ESE,4.6,-,N/A,,Clear,110,2013-06-21 01:35:00
8:55 PM,71.2,56.1,59,30.10,10.0,ESE,6.9,-,N/A,,Clear,110,2013-06-21 01:55:00
9:15 PM,70.0,55.4,60,30.10,10.0,ESE,5.8,-,N/A,,Clear,120,2013-06-21 02:15:00
9:35 PM,69.3,54.9,60,30.11,10.0,ESE,4.6,-,N/A,,Clear,120,2013-06-21 02:35:00
9:55 PM,68.4,54.5,61,30.12,10.0,ESE,3.5,-,N/A,,Clear,110,2013-06-21 02:55:00
10:15 PM,67.1,54.7,64,30.12,10.0,ESE,3.5,-,N/A,,Clear,110,2013-06-21 03:15:00
10:35 PM,66.7,54.5,65,30.12,10.0,Calm,Calm,-,N/A,,Clear,0,2013-06-21 03:35:00
10:55 PM,66.2,54.3,65,30.12,10.0,SE,3.5,-,N/A,,Clear,130,2013-06-21 03:55:00
11:15 PM,66.2,54.0,65,30.12,10.0,ESE,3.5,-,N/A,,Clear,120,2013-06-21 04:15:00
11:35 PM,65.5,54.0,66,30.12,10.0,SE,4.6,-,N/A,,Clear,130,2013-06-21 04:35:00
11:55 PM,64.9,54.1,68,30.12,10.0,Calm,Calm,-,N/A,,Clear,0,2013-06-21 04:55:00